Location: A O Calhoun Middle School
(33.2198°N, 97.1397°W)
Time: 01:46:16
(UTC+00:00)

DELTA 2 R/B (1) - Pass Details

Date: 06 July 2022
Orbit: 790 x 803 km, 39.6° (Epoch: 16 August)

Event Time Altitude Azimuth Distance (km) Brightness Sun altitude
Rises 02:30:37 0° 287° (WNW) 3,290 8.4 -9.6°
Reaches altitude 10° 02:33:20 10° 277° (W) 2,360 7.1 -10.1°
Maximum altitude 02:38:10 31° 217° (SW) 1,370 4.8 -10.9°
Enters shadow 02:42:47 11° 157° (SSE) 2,286 5.4 -11.6°
